Regional Weather Roundup
Issued by NWS

Home | Current Version | Previous Version | Text Only | Print | Product List | Glossary Off
Versions: 1 2 3 4 5 6 7 8 9 10 11 12 13 14 15 16 17 18 19 20 21 22 23 24 25 26 27 28 29 30 31 32 33 34 35 36 37 38 39 40 41 42 43 44 45 46 47 48 49 50

161
ASUS45 KBOU 110007
RWRCO

WEATHER ROUNDUP FOR COLORADO
NATIONAL WEATHER SERVICE DENVER/BOULDER CO
500 PM MST SAT DEC 10 2016

NOTE: "FAIR" INDICATES FEW OR NO CLOUDS BELOW 12000 FEET WITH NO
SIGNIFICANT WEATHER AND/OR OBSTRUCTIONS TO VISIBILITY.

COZ001>005-013-030-031-110100-
...NORTHWEST COLORADO...

CITY           SKY/WX    TMP DP  RH WIND       PRES   REMARKS
CRAIG          LGT RAIN  42  28  57 SW18      29.88R
HAYDEN         CLOUDY    39  27  60 W8G16     29.88S
MEEKER         CLOUDY    41  28  60 SW10G18   29.91S
MOUNT WERNER   NOT AVBL
STEAMBOAT SPGS CLOUDY    37  31  78 CALM      29.88R
WALDEN           N/A     34  28  80 W10       29.88S WCI  26
$$

COZ006>008-011-110100-
...WEST CENTRAL VALLEYS...

CITY           SKY/WX    TMP DP  RH WIND       PRES   REMARKS
GRAND JUNCTION FAIR      32  25  75 E3        29.98F
MONTROSE       FAIR      37  25  61 NW5       29.98S
EAGLE          LGT RAIN  34  32  93 E7        29.97S WCI  28
RIFLE          CLOUDY    32  26  78 W7        29.97F WCI  26
DELTA          NOT AVBL
NUCLA          FAIR      45  28  53 CALM      30.03S
$$

COZ017>023-064>068-110100-
...SOUTHWEST COLORADO...

CITY           SKY/WX    TMP DP  RH WIND       PRES   REMARKS
DURANGO        FAIR      42  24  49 CALM      30.06S
CORTEZ         FAIR      40  28  62 S3        30.04S
PAGOSA SPRINGS FAIR      42  25  50 SW5       30.08F
TELLURIDE      CLOUDY    42  15  32 NW5       30.07S
WOLF CREEK PAS FAIR      21  19  93 S24G35    30.15F WCI   4
$$

COZ009-010-012-014-032>034-037-058>063-110100-
...CENTRAL COLORADO...

CITY           SKY/WX    TMP DP  RH WIND       PRES   REMARKS
ASPEN          CLOUDY    34  30  85 CALM      29.95R
BUENA VISTA    FAIR      44  23  43 W28G36    29.88S
COPPER MTN     CLOUDY    30  23  74 W16G32    30.00R WCI  19
BERTHOUD PASS  SNOW      21  10  63 MISG      29.94F VSB 1/2
COTTONWOOD PAS CLOUDY    37  23  56 NW10G26   29.93F
GUNNISON       FAIR      26  20  77 CALM      30.00F
KREMMLING      LGT RAIN  39  34  81 W13G21    29.90S
LEADVILLE      LGT SNOW  30  28  92 SE7       29.95F VSB 3/4 WCI  23
MONARCH PASS   MOCLDY    25  14  63 W29G40    30.15R WCI   8
SALIDA         FAIR      48  13  24 SW14G25   29.96F
SUNLIGHT       MIX PCPN  27  27 100 SW22G37   30.00S WCI  12
WILKERSON PASS FAIR      28  21  74 SW14G23   29.98F WCI  17
$$

COZ069>075-110100-
...SAN LUIS VALLEY/SANGRE DE CRISTO MOUNTAINS...

CITY           SKY/WX    TMP DP  RH WIND       PRES   REMARKS
ALAMOSA        FAIR      38  17  42 SE5       29.95F
LA VETA PASS   FAIR      34  14  44 NE24G35   29.95S WCI  21
SAGUACHE       FAIR      37  19  48 CALM      29.95F
$$

COZ035-036-038>040-110100-
...NORTHERN COLORADO FRONT RANGE...

CITY           SKY/WX    TMP DP  RH WIND       PRES   REMARKS
DENVER INTL AP MOCLDY    47  27  45 NE7       29.73R
DMNS CITY PARK   N/A     55  27  33 N9G21     29.71R
AURORA         MOCLDY    53  28  38 NW13      29.73S
FRONT RANGE AP MOCLDY    55  28  35 S12G21    29.73
ERIE MUNI ARPT FAIR      52  30  43 W16G26    29.71S
BOULDER MUN AP FAIR      54  28  37 W7        29.68R
CENTENNIAL     MOCLDY    51  26  37 E8        29.73S
BROOMFIELD     MOCLDY    55  28  35 MISG      29.72
FORT COLLINS   FAIR      34  27  75 NE10      29.71R WCI  26
LONGMONT       NOT AVBL
$$

COZ041-046-047-076>085-087-088-110100-
...PIKES PEAK/PALMER DIVIDE AND SOUTHERN FOOTHILLS...

CITY           SKY/WX    TMP DP  RH WIND       PRES   REMARKS
COLO. SPRINGS  MOCLDY    55  22  27 N9        29.74F
A. F. ACADEMY  FAIR      52  22  31 W31G49    29.69F
SCHRIEVER AFB  NOT AVBL
ELLICOTT       FAIR     N/A N/A N/A N5        29.75F
FALCON         FAIR      52  21  29 W23G32    29.77F
FORT CARSON    FAIR      59  22  23 SW7G21    29.71F
LIMON          FAIR      44  19  36 N5        29.73F
MONUMENT HILL  FAIR      46  23  39 N6        29.80S
TRINIDAD       FAIR      61   9  12 CALM      29.80F
$$

COZ042>045-048>051-090-091-110100-
...NORTHEAST COLORADO...

CITY           SKY/WX    TMP DP  RH WIND       PRES   REMARKS
GREELEY ARPT   FAIR      27  24  89 N6        29.73S WCI  20
AKRON          FAIR      33  27  78 SW8       29.72S WCI  26
BURLINGTON     FAIR      39  25  57 SE13      29.73F
WRAY           FAIR      30  27  86 CALM      29.76F
STERLING       FAIR      30  27  86 N3        29.73R
HOLYOKE        FAIR      32  27  80 S5        29.75S WCI  27
FORT MORGAN    FAIR      27  23  84 CALM      29.73R
$$

COZ086-089-092>099-110100-
...SOUTHEAST COLORADO...

CITY           SKY/WX    TMP DP  RH WIND       PRES   REMARKS
PUEBLO         FAIR      52  20  28 W5        29.71F
LA JUNTA       FAIR      47  22  37 E7        29.71F
LAMAR          FAIR      42  25  50 E6        29.71F
SPRINGFIELD      N/A     52  22  30 S14       29.74F
$$




USA.gov is the U.S. government's official web portal to all federal, state and local government web resources and services.